{"data":{"norad_id":62277,"epoch":"2026-05-25T04:43:56.282880Z","epoch_age_seconds":58151,"freshness":"FRESH","line1":"1 62277U 24237L   26145.19717920  .00214525  00000+0  16292-2 0  9996","line2":"2 62277  42.9988 315.5587 0000485  65.3699 294.7219 15.70888732 85089","mean_motion":15.70888732,"eccentricity":4.85e-5,"inclination_deg":42.9988,"raan_deg":315.5587,"arg_perigee_deg":65.3699,"mean_anomaly_deg":294.7219,"bstar":0.0016292,"rev_number":8508,"period_min":91.667854677819,"perigee_km":356.02915709314,"apogee_km":356.6824028928,"semimajor_km":6734.492779993,"source":"CELESTRAK","updated_at":"2026-05-25T13:38:19.643911Z"}}